Weather Roundup
Issued by NWS Chicago, IL

Home | Current Version | Previous Version | Text Only | Print | Product List | Glossary Off
Versions: 1 2 3 4 5 6 7 8 9 10 11 12 13 14 15 16 17 18 19 20 21 22 23 24 25 26 27 28 29 30 31 32 33 34 35 36 37 38 39 40 41 42 43 44 45 46 47 48 49 50

321
NZUS59 KLOT 291103
HRRLOT

CHICAGO AREA WEATHER ROUNDUP
NATIONAL WEATHER SERVICE CHICAGO/ROMEOVILLE IL
600 AM CDT SAT APR 29 2017

NOTE: "FAIR" INDICATES FEW OR NO CLOUDS BELOW 12,000 FEET WITH NO
SIGNIFICANT WEATHER AND/OR OBSTRUCTIONS TO VISIBILITY.

* THESE STATIONS ARE NOT UNDER NWS QUALITY CONTROL. THEY ALSO MAY NOT
  REPORT WEATHER SUCH AS PRECIPITATION OR FOG.

ILZ005-006-012>014-019>023-291200-
NORTHEAST ILLINOIS

CITY           SKY/WX    TMP DP  RH WIND       PRES   REMARKS
OHARE          CLOUDY    46  36  68 NE18      30.13R
MIDWAY         CLOUDY    46  39  76 NE14G23   30.14R
AURORA         CLOUDY    46  39  76 NE14      30.13R
LANSING*       CLOUDY    46  42  86 N14       30.12R
JOLIET*        CLOUDY    47  39  73 NE13      30.12R
WAUKEGAN       CLOUDY    42  35  76 N13       30.15R
DUPAGE AIRPORT CLOUDY    45  38  76 NE17      30.12R
WHEELING       CLOUDY    44  37  76 N13G22    30.15R
KANKAKEE*      CLOUDY    47  41  81 NE14      30.08R
MORRIS*        CLOUDY    46  39  76 NE7       30.10R
NORTHERLY ISL    N/A     44  39  82 N18         N/A
$$

WIZ051-052-058>065-066-070>072-291200-
SOUTHEAST WISCONSIN

CITY           SKY/WX    TMP DP  RH WIND       PRES   REMARKS
MILWAUKEE      CLOUDY    43  33  68 NE17G25   30.18R
KENOSHA*       CLOUDY    43  31  62 NE14G21   30.16R
RACINE*        CLOUDY    43  31  62 NE14      30.19R
WAUKESHA       MOCLDY    39  30  70 N8G16     30.18R
WEST BEND      PTCLDY    39  32  75 NE12G21   30.18R
$$

INZ001>003-010>013-019-020-291200-
NORTHWEST INDIANA

CITY           SKY/WX    TMP DP  RH WIND       PRES   REMARKS
GARY*          CLOUDY    46  41  81 N14G28    30.12R
MICHIGAN CITY* NOT AVBL
RENSSELAER*    NOT AVBL
VALPARAISO     CLOUDY    49  43  80 N8        30.08R
$$

LMZ740>746-291200-
SOUTHERN LAKE MICHIGAN

STATION/POSITION TIME  SKY/WX   TEMP WIND        PRES    VSBY
                                AIR  DIR/SP/G
                 (UTC)          (F)  (DEG/KT/KT) (MB)    (MI)
HARRISON CRIB    1030            44   10/ 20/ 22   N/A
BURNHAM HARBOR   1100            44   10/ 16/ 20   N/A
CALUMET HARBOR   1030            44  360/ 13/ 17 1019.0R
BURNS HARBOR     1040            45   30/ 17/ 20 1019.0R
MICHIGAN CITY    1040            44   10/ 18/ 20   N/A
$$

ABBREVIATIONS USED IN REMARKS
   TC - TEMPERATURE IN CELSIUS
  WCI - WIND CHILL INDEX
   HX - HEAT INDEX
  VSB - VISIBILITY
$$




USA.gov is the U.S. government's official web portal to all federal, state and local government web resources and services.